星链-30444 (STARLINK-30444 )

导读

STARLINK-30444是美国太空探索技术公司星链星座的卫星,于2023年9月16日发射升空,归属星链互联网卫星组网项目,旨在为全球范围提供低延迟、高速率的宽带互联网服务。该卫星运行在近地轨道,属于星链批量部署的卫星之一,延续了星链星座标准化设计与规模化组网的特点,助力全球卫星互联网覆盖网络的完善。

基本信息
目录编号:
57871
目录名称:
STARLINK-30444
国际标识:
2023-144H
轨道中心:
EARTH
卫星名称:
星链-30444
卫星全名:
星链-30444 (STARLINK-30444 )
卫星状态:
在轨 (已飞行1084 天)
发射日期:
2023-09-16 UTC
国别 :
美国 (US)
星等 :
--
轨道信息
数据来源 国际轨道数据
星历时间: 2026-09-03T22:12:15+0800
23小时前
查看轨道信息
半长轴: 6861.176km
偏心率: 0.0002037
轨道倾角: 43.002°
近地点辐角 284.662°
升交点赤经 0.644°
平近点角 75.400°
近地点: 481.641km
远地点: 484.437km
周期: 94.267分钟
每日圈数: 15.275837
详细信息
固有亮度:
5
最大亮度:
0.3
卫星平台:
Starlink v2.0 mini
覆盖范围:
全球
运营商:
太空探索技术公司
运营商所在国:
美国
制造商(研发单位):
太空探索技术公司
制造商所在国:
美国
使用方式:
暂无
卫星简介
星链(Starlink)计划是由太空探索技术公司(SpaceX)提出的一个巨型低轨卫星互联网星座项目,计划在2019年至2024年间在太空搭建由约1.2万颗卫星组成的“星链”网络,其中1584颗将部署在地球上空550千米处的近地轨道,并从2020年开始工作。该卫星仍在工作。
2D轨道图
3D轨道图
轨道高度分析图
轨道倾角分析图
轨道综合分析图
查看轨道综合分析图